CZ-6A DEB

Satellite information

Favourite Embed

Satellite Type and Status

DEBRISIN ORBIT

Key statistics

Satellite CZ-6A DEB at a glance.

Uptime

440

Days in orbit

Revolutions

≈ 14.0

Per day

Orbit

LEO

Low Earth Orbit

Inclination

88.8

Latest

Satellite identification and parameters

Extended collection of information and parameters for CZ-6A DEB.

Object identification

Identified? True

Debris? True

Object name: CZ-6A DEB

International designator: 2024-140EE

Object number (NORAD): 60755

Object ID (CCSDS): 60755

Country: PEOPLES REPUBLIC OF CHINA (PRC)

Current information (Y/N): Y

RCS size: SMALL

Orbital parameters

Period: 102.614 minutes

Inclination: 88.7748 deg

SMA: 7260.465 km

Apoapsis: 976.483 km

Periapsis: 788.177 km

RAAN: 292.1513 deg

Eccentricy: 0.01296796

Argument of periapsis: 263.37 deg

Mean anomaly: 95.2707 deg

Mean motion: 14.03318051 rev/day

Mean motion (dot): 0.00002513 rev/day2

B* drag term: 0.0014875672 1/REarth

Two-line elements (TLE)

Creation date: Oct. 20, 2025, 2:10 a.m.

Reference frame: TEME

Reference center: EARTH

Epoch: Oct. 19, 2025, 10:55 p.m. UTC

TLE line 0: 0 CZ-6A DEB

TLE line 1: 1 60755U 24140EE 25292.95503763 .00002513 00000-0 14876-2 0 9991

TLE line 2: 2 60755 88.7748 292.1513 0129680 263.3700 95.2707 14.03318051 59670

Live tracking on map

Real-time ground track for satellite CZ-6A DEB.

In-orbit conjunctions

A list of the most updated potential collisions computed for object CZ-6A DEB.

Target Orbit TCA Probability of collision Miss distance Type
COSMOS 2251 DEB LEO 2025-02-04 21:58:19 0.000229717 260.0 (m) DEBRIS
FENGYUN 1C DEB SSO 2024-11-27 19:01:25 0.0001333456 260.0 (m) DEBRIS
METEOR 2-8 DEB LEO 2024-11-08 23:14:22 0.0001326884 930.0 (m) DEBRIS
COSMOS 911 LEO 2024-11-06 15:37:01 0.0002557726 809.0 (m) PAYLOAD
SS 1 LEO 2024-10-06 17:40:28 0.0002461464 612.0 (m) PAYLOAD

Associated space launch

18 Low Earth Orbit communication satellites with Ku, Q and V band payloads for the G60 constellation operated by Shanghai Spacecom Satellite Technology (SSST) with funding backed by the Shanghai local government. Initial constellation will consist of 1296 satellites by 2027 with long term plans to expand it to 12000 satellites.

CZ-6A DEB was lifted into orbit during the mission ‘Long March 6A | G60 Polar Group 01’, on board a Long March 6A space rocket.

The launch took place on Aug. 6, 2024, 6:42 a.m. from Launch Complex 9A.

For more information about the launch, click the button.

Launch to space Long March 6A | G60 Polar Group 01
Long March 6A | G60 Polar Group 01

Agency: N/A

Status: Launch Successful

Launch date: Aug. 6, 2024, 6:42 a.m. UTC

Rocket: Long March 6A

Launch pad: Launch Complex 9A

Location: Taiyuan Satellite Launch Center, People's Republic of China

...

Latest news about this satellite

News about space launch
Brightness of first Chinese broadband constellation satellites alarms astronomers

The first satellites of a Chinese broadband constellation are significantly brighter than those of Western systems, posing a new challenge for astronomers.

News about space launch
Chinese rocket stage breaks up into cloud of more than 700 pieces of space debris

HELSINKI — A Chinese Long March 6A rocket’s upper stage has fragmented into a cloud of over 700 pieces of space debris, adding to concerns about long-term orbital safety. China […]

News about space launch
China's Thousand Sails Megaconstellation Kicks Off with Dangerous Debris Field

China's Thousand Sails Megaconstellation Kicks Off with Dangerous Debris Field


Newsletter sign-up

Weekly statistics, charts and insights to help you stay on top of the space industry.